sat.trackr.live / text

‹ back to catalog

STARLINK-5943

NORAD 56016 · 2023-042AG

PAYLOAD ACTIVE UNKNOWN

§ Identity

Operator
Country
US
Launch date
2023-03-24
Launch site
AFETR
Launch vehicle
Mass (kg)
RCS (m²)

Purposes: comms

External: N2YO · Heavens-Above · Gunter

§ Orbital elements

Epoch: 2026-05-24T21:02:22.026912Z

Period
94.27 min
Inclination
43.0024°
Eccentricity
0.0001371
Mean motion
15.27573634 rev/d
Perigee alt
482.1 km
Apogee alt
484.0 km
Semi-major
6,861.2 km
B*
-6.2225e-5
RAAN
335.2695°
Arg perigee
253.6358°
Mean anomaly
106.4343°
Rev number
17,468

§ Raw data

STARLINK-59431 56016U 23042AG  26144.87664383 -.00001974  00000+0 -62225-4 0  99942 56016  43.0024 335.2695 0001371 253.6358 106.4343 15.27573634174680

JSON: /api/v1/satellites/56016 · /tle

For live sub-satellite position, see the globe view (requires WebGL).

§ Visibility from observer

Set your observer location to see the next 7 days of passes ≥ 10°. The values pass through the URL so the page stays shareable.

No JS? Fill the form by hand. The geolocation button needs JavaScript.